Tracking 31027 objects as of 19-Jul-2025
HD Live streaming from Space Station
objects crossing your sky now

USA 99

Track USA 99 now!
USA 99 is classified as:


NORAD ID: 22988
Int'l Code: 1994-009A
Perigee: 35,789.0 km
Apogee: 35,797.7 km
Inclination: 17.1 °
Period: 1,436.1 minutes
Semi major axis: 42164 km
RCS: Unknown
Launch date: February 7, 1994
Source: United States (US)
Launch site: AIR FORCE EASTERN TEST RANGE (AFETR)

Voice communication, data, imagery and video; survivable global military communication system. "World's most secure, nuclear survivable, space-based communication system."
Your satellite tracking list
COSMOS 2251 DEB
Track 1 satellite(s)




NASA's NSSDC Master Catalog

Two Line Element Set (TLE):
1 22988U 94009A   25199.53889146 -.00000204  00000-0  00000-0 0  9998
2 22988  17.1178  31.2758 0001043 106.7525 262.5870  1.00273195 29612
Source of the keplerian elements: McCants